�������l�o���
Date,Time,MP-1(��Sv/h),MP-2(��Sv/h),MP-3(��Sv/h),MP-4(��Sv/h),MP-5(��Sv/h),MP-6(��Sv/h),MP-7(��Sv/h),MP-8(��Sv/h),����,����(m/s),���J
2020/12/19,00:00,0.674,0.966,0.616,1.221,0.856,0.383,0.678,0.636,��,11.6,��
2020/12/19,00:10,0.676,0.964,0.616,1.221,0.858,0.383,0.677,0.636,��,11.6,�L
2020/12/19,00:20,0.676,0.965,0.615,1.221,0.858,0.383,0.677,0.638,��,12.4,�L
2020/12/19,00:30,0.676,0.965,0.617,1.220,0.855,0.384,0.678,0.638,��,10.0,�L
2020/12/19,00:40,0.677,0.966,0.616,1.223,0.858,0.383,0.679,0.637,���쐼,10.7,��
2020/12/19,00:50,0.675,0.964,0.614,1.220,0.857,0.383,0.678,0.637,���쐼,9.8,��
2020/12/19,01:00,0.676,0.964,0.613,1.221,0.859,0.382,0.679,0.639,��,11.0,��
2020/12/19,01:10,0.676,0.963,0.615,1.220,0.856,0.383,0.679,0.638,��,10.2,��
2020/12/19,01:20,0.676,0.965,0.617,1.220,0.858,0.382,0.680,0.636,��,9.6,��
2020/12/19,01:30,0.675,0.965,0.616,1.220,0.858,0.383,0.679,0.638,��,10.4,��
2020/12/19,01:40,0.675,0.965,0.614,1.218,0.858,0.382,0.679,0.637,��,10.9,��
2020/12/19,01:50,0.674,0.965,0.615,1.221,0.856,0.383,0.678,0.637,��,9.4,��
2020/12/19,02:00,0.676,0.965,0.615,1.220,0.856,0.383,0.678,0.638,��,8.8,��
2020/12/19,02:10,0.675,0.967,0.615,1.220,0.857,0.383,0.678,0.637,��,9.7,��
2020/12/19,02:20,0.673,0.964,0.617,1.218,0.856,0.383,0.678,0.636,���k��,7.9,�L
2020/12/19,02:30,0.674,0.964,0.615,1.224,0.856,0.383,0.678,0.638,���k��,8.0,�L
2020/12/19,02:40,0.676,0.965,0.616,1.221,0.856,0.383,0.678,0.638,��,9.5,�L
2020/12/19,02:50,0.676,0.962,0.616,1.222,0.857,0.383,0.678,0.637,���k��,9.4,��
2020/12/19,03:00,0.677,0.965,0.614,1.220,0.856,0.382,0.678,0.637,���k��,11.1,��
2020/12/19,03:10,0.677,0.963,0.613,1.222,0.857,0.383,0.680,0.637,���k��,9.6,��
2020/12/19,03:20,0.676,0.964,0.614,1.221,0.858,0.384,0.679,0.639,���k��,12.7,��
2020/12/19,03:30,0.674,0.966,0.613,1.220,0.855,0.381,0.678,0.637,�k��,12.7,��
2020/12/19,03:40,0.675,0.965,0.613,1.220,0.855,0.383,0.680,0.638,�k��,12.5,��
2020/12/19,03:50,0.676,0.966,0.613,1.220,0.857,0.381,0.678,0.638,�k��,11.1,��
2020/12/19,04:00,0.675,0.965,0.612,1.222,0.856,0.381,0.679,0.638,�k��,13.1,��
2020/12/19,04:10,0.675,0.966,0.612,1.221,0.856,0.380,0.679,0.637,�k��,12.7,��
2020/12/19,04:20,0.676,0.965,0.611,1.220,0.854,0.380,0.678,0.637,�k��,14.6,��
2020/12/19,04:30,0.674,0.964,0.613,1.223,0.854,0.380,0.678,0.638,�k��,11.3,��
2020/12/19,04:40,0.673,0.966,0.611,1.219,0.855,0.378,0.676,0.638,�k��,8.5,��
2020/12/19,04:50,0.675,0.964,0.611,1.220,0.858,0.380,0.676,0.636,���k��,10.2,��
2020/12/19,05:00,0.674,0.966,0.612,1.220,0.857,0.381,0.678,0.637,���k��,7.3,��
2020/12/19,05:10,0.672,0.965,0.611,1.221,0.855,0.380,0.678,0.638,�k��,8.0,��
2020/12/19,05:20,0.675,0.965,0.614,1.221,0.855,0.381,0.676,0.637,�k��,10.3,��
2020/12/19,05:30,0.675,0.965,0.616,1.220,0.857,0.381,0.679,0.636,���k��,10.3,��
2020/12/19,05:40,0.673,0.967,0.615,1.222,0.857,0.380,0.678,0.637,�k��,10.2,��
2020/12/19,05:50,0.674,0.966,0.614,1.220,0.856,0.381,0.676,0.639,�k��,12.0,��
2020/12/19,06:00,0.674,0.964,0.613,1.220,0.856,0.381,0.676,0.638,�k��,10.6,��
2020/12/19,06:10,0.673,0.968,0.611,1.218,0.855,0.380,0.677,0.637,�k��,10.7,��
2020/12/19,06:20,0.673,0.966,0.612,1.219,0.854,0.380,0.676,0.637,�k��,11.4,��
2020/12/19,06:30,0.673,0.964,0.611,1.221,0.857,0.379,0.677,0.636,�k��,12.1,��
2020/12/19,06:40,0.672,0.964,0.610,1.217,0.855,0.379,0.674,0.637,�k��,12.0,��
2020/12/19,06:50,0.670,0.961,0.610,1.220,0.855,0.379,0.675,0.637,�k��,10.2,��
2020/12/19,07:00,0.671,0.963,0.611,1.223,0.855,0.379,0.676,0.637,�k��,8.6,��
2020/12/19,07:10,0.670,0.963,0.612,1.220,0.853,0.379,0.676,0.636,�k��,7.1,��
2020/12/19,07:20,0.671,0.965,0.614,1.222,0.855,0.380,0.676,0.637,�k��,6.1,��
2020/12/19,07:30,0.673,0.966,0.611,1.217,0.854,0.381,0.675,0.636,�k��,6.9,��
2020/12/19,07:40,0.672,0.965,0.613,1.221,0.856,0.381,0.677,0.637,�k��,6.7,��
2020/12/19,07:50,0.674,0.963,0.615,1.219,0.856,0.381,0.676,0.637,�k��,8.6,��
2020/12/19,08:00,0.673,0.964,0.612,1.220,0.855,0.380,0.678,0.637,���k��,8.4,��
2020/12/19,08:10,0.672,0.965,0.615,1.219,0.855,0.381,0.677,0.638,�k��,8.9,��
2020/12/19,08:20,0.673,0.963,0.616,1.221,0.854,0.382,0.677,0.637,�k��,10.4,��
2020/12/19,08:30,0.675,0.967,0.613,1.219,0.856,0.381,0.678,0.637,�k��,9.4,��
2020/12/19,08:40,0.673,0.963,0.614,1.221,0.856,0.380,0.677,0.637,���k��,9.2,��
2020/12/19,08:50,0.675,0.964,0.612,1.220,0.855,0.382,0.678,0.637,���k��,8.5,��
2020/12/19,09:00,0.675,0.963,0.612,1.219,0.855,0.381,0.675,0.636,���k��,7.6,��
2020/12/19,09:10,0.673,0.963,0.613,1.218,0.856,0.381,0.677,0.638,���k��,7.0,��
2020/12/19,09:20,0.677,0.963,0.612,1.219,0.854,0.382,0.677,0.638,���k��,5.9,��
2020/12/19,09:30,0.675,0.966,0.613,1.221,0.856,0.381,0.678,0.638,��,5.3,��
2020/12/19,09:40,0.672,0.964,0.613,1.222,0.857,0.382,0.676,0.638,���k��,5.5,��
2020/12/19,09:50,0.676,0.964,0.612,1.217,0.855,0.382,0.677,0.638,��,4.4,��
2020/12/19,10:00,0.675,0.965,0.614,1.221,0.858,0.380,0.676,0.638,�k�k��,4.9,�L
2020/12/19,10:10,0.675,0.966,0.613,1.222,0.854,0.382,0.677,0.638,�k�k��,6.8,�L
2020/12/19,10:20,0.675,0.964,0.613,1.222,0.858,0.382,0.678,0.637,�k��,6.1,��
2020/12/19,10:30,0.675,0.963,0.613,1.222,0.857,0.380,0.676,0.637,�k��,6.1,��
2020/12/19,10:40,0.676,0.962,0.613,1.220,0.859,0.380,0.676,0.636,�k��,8.4,��
2020/12/19,10:50,0.675,0.965,0.613,1.221,0.858,0.381,0.676,0.636,�k��,5.7,��
2020/12/19,11:00,0.676,0.966,0.616,1.220,0.858,0.383,0.675,0.637,�k��,7.6,��
2020/12/19,11:10,0.678,0.966,0.614,1.222,0.858,0.382,0.677,0.636,�k��,7.7,��
2020/12/19,11:20,0.676,0.966,0.615,1.220,0.858,0.380,0.677,0.636,�k��,7.5,�L
2020/12/19,11:30,0.674,0.966,0.616,1.221,0.859,0.381,0.678,0.638,�k��,7.0,�L
2020/12/19,11:40,0.673,0.967,0.616,1.220,0.857,0.381,0.679,0.636,�k��,5.0,�L
2020/12/19,11:50,0.675,0.969,0.615,1.222,0.859,0.382,0.679,0.639,�k��,5.8,��
2020/12/19,12:00,0.676,0.968,0.614,1.221,0.860,0.383,0.677,0.638,�k��,5.1,��
2020/12/19,12:10,0.676,0.968,0.617,1.223,0.857,0.382,0.677,0.637,�k�k��,4.9,��
2020/12/19,12:20,0.675,0.966,0.614,1.220,0.856,0.383,0.679,0.638,�k�k��,4.4,��
2020/12/19,12:30,0.675,0.966,0.613,1.223,0.859,0.383,0.678,0.639,�k�k��,5.0,��
2020/12/19,12:40,0.674,0.968,0.613,1.223,0.857,0.381,0.677,0.640,�k�k��,5.1,�L
2020/12/19,12:50,0.676,0.963,0.614,1.224,0.857,0.382,0.678,0.639,�k�k��,5.6,��
2020/12/19,13:00,0.678,0.966,0.615,1.223,0.860,0.384,0.679,0.639,�k�k��,6.4,�L
2020/12/19,13:10,0.675,0.966,0.616,1.223,0.860,0.384,0.679,0.638,�k��,6.7,�L
2020/12/19,13:20,0.677,0.966,0.617,1.223,0.861,0.384,0.677,0.638,�k��,5.3,�L
2020/12/19,13:30,0.676,0.966,0.618,1.222,0.861,0.384,0.679,0.639,�k��,5.3,�L
2020/12/19,13:40,0.677,0.964,0.616,1.223,0.859,0.385,0.679,0.637,�k��,5.9,�L
2020/12/19,13:50,0.676,0.964,0.617,1.223,0.858,0.385,0.677,0.639,�k��,6.4,�L
2020/12/19,14:00,0.678,0.965,0.617,1.221,0.859,0.385,0.677,0.638,�k��,5.9,�L
2020/12/19,14:10,0.678,0.966,0.616,1.224,0.859,0.383,0.676,0.638,�k�k��,6.4,��
2020/12/19,14:20,0.677,0.967,0.618,1.222,0.857,0.383,0.678,0.638,�k�k��,7.4,��
2020/12/19,14:30,0.676,0.967,0.617,1.222,0.859,0.384,0.677,0.640,�k��,6.1,��
2020/12/19,14:40,0.676,0.967,0.616,1.224,0.858,0.382,0.677,0.637,�k�k��,7.1,��
2020/12/19,14:50,0.677,0.965,0.615,1.220,0.859,0.382,0.678,0.639,�k�k��,6.5,��
2020/12/19,15:00,0.675,0.967,0.616,1.221,0.856,0.383,0.678,0.639,�k�k��,4.8,��
2020/12/19,15:10,0.675,0.966,0.615,1.220,0.857,0.383,0.677,0.638,�k��,6.7,��
2020/12/19,15:20,0.676,0.966,0.617,1.220,0.857,0.383,0.678,0.636,�k��,7.9,�L
2020/12/19,15:30,0.676,0.967,0.616,1.221,0.859,0.382,0.677,0.637,�k��,7.4,�L
2020/12/19,15:40,0.674,0.965,0.614,1.220,0.855,0.382,0.678,0.637,�k�k��,7.3,�L
2020/12/19,15:50,0.675,0.964,0.615,1.220,0.857,0.382,0.676,0.637,�k��,6.3,��
2020/12/19,16:00,0.675,0.965,0.614,1.218,0.855,0.382,0.676,0.638,�k�k��,6.4,��
2020/12/19,16:10,0.675,0.967,0.614,1.222,0.855,0.380,0.676,0.637,�k��,5.5,��
2020/12/19,16:20,0.675,0.965,0.613,1.218,0.854,0.380,0.676,0.636,�k��,5.4,�L
2020/12/19,16:30,0.675,0.965,0.613,1.217,0.856,0.381,0.677,0.635,�k��,6.0,�L
2020/12/19,16:40,0.672,0.964,0.612,1.220,0.854,0.380,0.676,0.635,�k��,5.8,��
2020/12/19,16:50,0.673,0.964,0.613,1.216,0.853,0.381,0.678,0.636,�k��,4.9,��
2020/12/19,17:00,0.673,0.963,0.612,1.218,0.856,0.379,0.677,0.637,���k��,3.7,��
2020/12/19,17:10,0.670,0.961,0.613,1.215,0.852,0.382,0.675,0.637,���k��,3.4,��
2020/12/19,17:20,0.671,0.963,0.613,1.218,0.854,0.381,0.675,0.637,���쐼,2.3,��
2020/12/19,17:30,0.671,0.961,0.612,1.217,0.852,0.381,0.675,0.637,��,2.3,��
2020/12/19,17:40,0.670,0.963,0.611,1.217,0.855,0.381,0.675,0.636,���쐼,0.9,��
2020/12/19,17:50,0.673,0.963,0.611,1.217,0.853,0.380,0.675,0.637,�쐼,1.5,��
2020/12/19,18:00,0.670,0.963,0.612,1.217,0.852,0.381,0.675,0.637,��,2.6,��
2020/12/19,18:10,0.671,0.962,0.611,1.214,0.853,0.381,0.675,0.635,��,3.0,��
2020/12/19,18:20,0.670,0.957,0.610,1.218,0.853,0.382,0.675,0.636,��,4.6,��
2020/12/19,18:30,0.671,0.960,0.612,1.214,0.852,0.380,0.675,0.636,��,5.3,��
2020/12/19,18:40,0.670,0.960,0.613,1.214,0.854,0.381,0.675,0.638,��,5.1,��
2020/12/19,18:50,0.672,0.960,0.610,1.215,0.852,0.380,0.675,0.636,��,4.8,��
2020/12/19,19:00,0.671,0.961,0.610,1.215,0.852,0.380,0.675,0.637,��,6.9,��
2020/12/19,19:10,0.670,0.961,0.610,1.216,0.853,0.380,0.676,0.638,��,5.6,��
2020/12/19,19:20,0.670,0.962,0.612,1.215,0.852,0.380,0.676,0.636,��,7.3,��
2020/12/19,19:30,0.668,0.962,0.611,1.216,0.851,0.381,0.675,0.637,���k��,6.5,��
2020/12/19,19:40,0.670,0.963,0.611,1.216,0.855,0.378,0.676,0.634,���k��,4.5,��
2020/12/19,19:50,0.671,0.960,0.610,1.215,0.851,0.379,0.675,0.636,�k�k��,3.0,��
2020/12/19,20:00,0.669,0.962,0.610,1.217,0.851,0.381,0.677,0.636,�k,2.9,��
2020/12/19,20:10,0.669,0.961,0.609,1.217,0.852,0.380,0.676,0.636,�k,4.1,��
2020/12/19,20:20,0.669,0.959,0.611,1.216,0.853,0.380,0.675,0.638,�k,4.5,��
2020/12/19,20:30,0.670,0.962,0.610,1.215,0.852,0.381,0.674,0.636,�k,3.8,��
2020/12/19,20:40,0.670,0.960,0.611,1.215,0.850,0.380,0.676,0.636,�k,4.2,��
2020/12/19,20:50,0.670,0.960,0.611,1.216,0.849,0.380,0.675,0.636,�k�k��,3.2,��
2020/12/19,21:00,0.670,0.960,0.610,1.214,0.853,0.380,0.675,0.635,�k,4.5,��
2020/12/19,21:10,0.669,0.963,0.612,1.215,0.851,0.379,0.675,0.635,�k�k��,4.8,��
2020/12/19,21:20,0.669,0.959,0.611,1.215,0.851,0.379,0.675,0.635,�k�k��,4.6,��
2020/12/19,21:30,0.669,0.960,0.611,1.217,0.852,0.380,0.674,0.636,�k�k��,5.7,��
2020/12/19,21:40,0.669,0.958,0.611,1.215,0.850,0.379,0.675,0.635,�k�k��,4.2,��
2020/12/19,21:50,0.669,0.961,0.611,1.216,0.850,0.378,0.675,0.637,�k�k��,3.4,��
2020/12/19,22:00,0.668,0.960,0.611,1.216,0.851,0.379,0.676,0.635,�k�k��,4.2,��
2020/12/19,22:10,0.670,0.959,0.610,1.216,0.850,0.379,0.676,0.636,�k�k��,4.9,��
2020/12/19,22:20,0.669,0.960,0.610,1.216,0.851,0.380,0.675,0.636,�k�k��,2.8,��
2020/12/19,22:30,0.670,0.960,0.612,1.217,0.851,0.379,0.674,0.635,�k�k��,4.1,��
2020/12/19,22:40,0.669,0.962,0.610,1.215,0.852,0.380,0.674,0.635,�k�k��,4.8,��
2020/12/19,22:50,0.668,0.960,0.610,1.215,0.850,0.379,0.675,0.636,�k�k��,5.3,��
2020/12/19,23:00,0.669,0.959,0.609,1.215,0.853,0.379,0.675,0.636,�k,4.0,��
2020/12/19,23:10,0.669,0.960,0.611,1.216,0.850,0.379,0.676,0.636,�k,3.6,��
2020/12/19,23:20,0.668,0.960,0.610,1.215,0.851,0.379,0.674,0.634,�k,3.2,��
2020/12/19,23:30,0.670,0.960,0.611,1.217,0.850,0.379,0.674,0.635,�k��,2.3,��
2020/12/19,23:40,0.668,0.960,0.610,1.214,0.851,0.381,0.674,0.636,�k�k��,2.5,��
2020/12/19,23:50,0.670,0.959,0.610,1.213,0.851,0.381,0.673,0.635,�k,3.4,��
